Location: Dayton
(39.7590°N, 84.1920°W)
Time: 06:20:43
(UTC-04:00)

ATLAS CENTAUR R/B - Visible Passes

Search period start: 30 September 2014 00:00
Search period end: 10 October 2014 00:00
Orbit: 249 x 9342 km, 57.4° (Epoch: 25 September)

Date Brightness Start Highest point End Pass type
(mag) Time Alt. Az. Time Alt. Az. Time Alt. Az.
30 Sep 3.3 04:57:55 67° SSW 04:58:54 82° SE 05:15:18 10° NE visible
01 Oct 4.6 03:48:50 33° E 03:48:50 33° E 03:59:04 10° NE visible
01 Oct 5.1 07:05:16 10° W 07:13:39 45° N 07:43:21 10° ENE visible
02 Oct 4.1 05:55:26 30° W 05:59:18 55° NNW 06:21:10 10° NE visible
03 Oct 3.4 04:46:03 85° WSW 04:46:18 88° NW 05:02:52 10° NE visible
04 Oct 4.7 03:36:33 36° E 03:36:33 36° E 03:46:15 10° NE visible
04 Oct 5.2 06:52:24 10° WNW 07:01:01 44° N 07:31:16 10° ENE visible
05 Oct 5.9 02:26:55 12° ENE 02:26:55 12° ENE 02:28:24 10° ENE visible
05 Oct 4.2 05:42:40 34° WNW 05:46:05 51° NNW 06:08:02 10° NE visible
06 Oct 3.6 04:32:52 76° N 04:32:52 76° N 04:49:03 10° NE visible
07 Oct 4.9 03:22:57 35° ENE 03:22:57 35° ENE 03:32:01 10° NE visible
07 Oct 5.2 06:38:40 12° WNW 06:47:02 43° N 07:17:41 10° ENE visible
08 Oct 6.0 02:12:53 12° ENE 02:12:53 12° ENE 02:14:23 10° ENE visible
08 Oct 4.3 05:28:35 37° WNW 05:31:32 48° NNW 05:53:28 10° NE visible
09 Oct 4.0 04:18:23 65° N 04:18:23 65° N 04:33:49 10° NE visible
